Time,TemperatureF,DewpointF,PressureIn,WindDirection,WindDirectionDegrees,WindSpeedMPH,WindSpeedGustMPH,Humidity,HourlyPrecipIn,Conditions,Clouds,dailyrainin,SoftwareType,DateUTC
2013-02-27 00:00:00,35.3,32.9,29.75,ENE,68,0.0,0.0,91,0.13,,,0.00,WUHU216HW,2013-02-27 05:00:00,
2013-02-27 00:05:00,35.3,32.9,29.76,ESE,113,0.0,0.0,91,0.09,,,0.00,WUHU216HW,2013-02-27 05:05:00,
2013-02-27 00:10:00,35.3,32.9,29.76,ESE,113,0.0,0.0,91,0.08,,,0.01,WUHU216HW,2013-02-27 05:10:00,
2013-02-27 00:15:00,35.1,32.7,29.76,ESE,113,0.0,0.0,91,0.08,,,0.02,WUHU216HW,2013-02-27 05:15:00,
2013-02-27 00:20:00,35.1,32.7,29.77,ENE,68,0.0,0.0,91,0.07,,,0.02,WUHU216HW,2013-02-27 05:20:00,
2013-02-27 00:25:00,35.1,32.7,29.77,East,90,0.0,0.0,91,0.07,,,0.03,WUHU216HW,2013-02-27 05:25:00,
2013-02-27 00:30:00,35.1,32.7,29.77,East,90,0.0,0.0,91,0.07,,,0.03,WUHU216HW,2013-02-27 05:30:00,
2013-02-27 00:54:00,34.9,32.5,29.76,East,90,0.0,0.0,91,0.08,,,0.03,WUHU216HW,2013-02-27 05:54:00,
2013-02-27 00:59:00,34.9,32.5,29.76,East,90,0.0,0.0,91,0.08,,,0.08,WUHU216HW,2013-02-27 05:59:00,
2013-02-27 01:04:00,34.9,32.2,29.76,ESE,113,0.0,0.0,90,0.07,,,0.08,WUHU216HW,2013-02-27 06:04:00,
2013-02-27 01:09:00,34.9,32.2,29.76,ESE,113,0.0,0.0,90,0.07,,,0.08,WUHU216HW,2013-02-27 06:09:00,
2013-02-27 01:14:00,34.9,32.2,29.76,ENE,68,0.0,0.0,90,0.06,,,0.08,WUHU216HW,2013-02-27 06:14:00,
2013-02-27 01:19:00,34.9,32.2,29.76,East,90,0.0,0.0,90,0.05,,,0.08,WUHU216HW,2013-02-27 06:19:00,
2013-02-27 01:24:00,34.9,32.2,29.76,ENE,68,0.0,0.0,90,0.04,,,0.08,WUHU216HW,2013-02-27 06:24:00,
2013-02-27 01:29:00,34.9,32.2,29.76,East,90,0.0,0.0,90,0.03,,,0.08,WUHU216HW,2013-02-27 06:29:00,
2013-02-27 01:34:00,34.9,32.2,29.76,ENE,68,0.0,0.0,90,0.02,,,0.08,WUHU216HW,2013-02-27 06:34:00,
2013-02-27 01:39:00,35.1,32.4,29.76,ESE,113,0.0,0.0,90,0.03,,,0.09,WUHU216HW,2013-02-27 06:39:00,
2013-02-27 01:44:00,34.9,32.2,29.75,East,90,0.0,0.0,90,0.02,,,0.09,WUHU216HW,2013-02-27 06:44:00,
2013-02-27 01:49:00,34.9,32.2,29.75,ESE,113,0.0,0.0,90,0.02,,,0.09,WUHU216HW,2013-02-27 06:49:00,
2013-02-27 01:54:00,34.9,32.0,29.75,East,90,0.0,0.0,89,0.02,,,0.09,WUHU216HW,2013-02-27 06:54:00,
2013-02-27 01:59:00,35.1,32.1,29.76,ESE,113,0.0,0.0,89,0.01,,,0.09,WUHU216HW,2013-02-27 06:59:00,
2013-02-27 02:04:00,35.1,32.1,29.75,ENE,68,0.0,0.0,89,0.01,,,0.09,WUHU216HW,2013-02-27 07:04:00,
2013-02-27 02:09:00,35.1,32.1,29.75,East,90,0.0,0.0,89,0.01,,,0.09,WUHU216HW,2013-02-27 07:09:00,
2013-02-27 02:14:00,35.1,32.1,29.74,ENE,68,0.0,0.0,89,0.01,,,0.09,WUHU216HW,2013-02-27 07:14:00,
2013-02-27 02:19:00,34.9,32.0,29.74,ENE,68,0.0,0.0,89,0.01,,,0.09,WUHU216HW,2013-02-27 07:19:00,
2013-02-27 02:24:00,34.9,32.0,29.74,East,90,0.0,0.0,89,0.02,,,0.10,WUHU216HW,2013-02-27 07:24:00,
2013-02-27 02:29:00,34.9,32.0,29.74,East,90,0.0,0.0,89,0.02,,,0.10,WUHU216HW,2013-02-27 07:29:00,
2013-02-27 02:34:00,35.1,32.1,29.73,ENE,68,0.0,0.0,89,0.01,,,0.10,WUHU216HW,2013-02-27 07:34:00,
2013-02-27 02:39:00,35.1,32.1,29.73,East,90,0.0,0.0,89,0.01,,,0.10,WUHU216HW,2013-02-27 07:39:00,
2013-02-27 02:44:00,35.1,32.1,29.73,ESE,113,0.0,0.0,89,0.01,,,0.10,WUHU216HW,2013-02-27 07:44:00,
2013-02-27 02:49:00,35.1,32.1,29.73,ESE,113,0.0,0.0,89,0.01,,,0.10,WUHU216HW,2013-02-27 07:49:00,
2013-02-27 02:54:00,35.1,32.1,29.73,NE,45,0.0,0.0,89,0.01,,,0.10,WUHU216HW,2013-02-27 07:54:00,
2013-02-27 02:59:00,35.1,32.1,29.72,ENE,68,0.0,0.0,89,0.01,,,0.10,WUHU216HW,2013-02-27 07:59:00,
2013-02-27 03:04:00,35.1,32.1,29.72,ENE,68,0.0,0.0,89,0.01,,,0.10,WUHU216HW,2013-02-27 08:04:00,
2013-02-27 03:09:00,35.3,32.3,29.72,NE,45,0.0,0.0,89,0.01,,,0.10,WUHU216HW,2013-02-27 08:09:00,
2013-02-27 03:14:00,35.3,32.3,29.72,ENE,68,0.0,0.0,89,0.01,,,0.10,WUHU216HW,2013-02-27 08:14:00,